Stations météo

réclame
Mon MeteoGroup
Herstmonceux, Grande-Bretagne (3882): Température de l'air & dewpoint: 06.07.2020 04:00:00 - 12.07.2020 04:00:00 (BST)Herstmonceux, Grande-Bretagne (3882): Température de l'air -20cm & Température de l'air -100cm: 06.07.2020 04:00:00 - 12.07.2020 04:00:00 (BST)Herstmonceux, Grande-Bretagne (3882): Vitesse du vent: 06.07.2020 04:00:00 - 12.07.2020 04:00:00 (BST)Herstmonceux, Grande-Bretagne (3882): Direction du vent: 06.07.2020 04:00:00 - 12.07.2020 04:00:00 (BST)Herstmonceux, Grande-Bretagne (3882): reduced air pressure: 06.07.2020 04:00:00 - 12.07.2020 04:00:00 (BST)Herstmonceux, Grande-Bretagne (3882): visibility: 06.07.2020 04:00:00 - 12.07.2020 04:00:00 (BST)Herstmonceux, Grande-Bretagne (3882): Ensoleillement: 06.07.2020 04:00:00 - 12.07.2020 04:00:00 (BST)Herstmonceux, Grande-Bretagne (3882): Quantités de précipitations: 06.07.2020 04:00:00 - 12.07.2020 04:00:00 (BST)
Date & Time tt [°C] td [°C] tt -20cm [°C] tt -100cm [°C] ff [km/h] ff [knt] dd ppp [hPa] vv [km] sd [min] rr [mm]
12.07.2020 04:00:00 10,3 8,7 - - 5 3 NE 1027,8 30 0 0,0
12.07.2020 03:00:00 11,3 8,8 - - 4 2 NE 1027,8 45 0 0,0
12.07.2020 02:00:00 11,0 8,4 - - 4 2 NE 1027,9 50 0 0,0
12.07.2020 01:00:00 11,2 7,7 - - 5 3 NE 1028,0 30 - 0,0
12.07.2020 00:00:00 12,4 8,1 - - 5 3 NE 1028,0 50 0 0,0
11.07.2020 23:00:00 13,4 8,7 - - 4 2 NNE 1028,0 24 0 0,0
11.07.2020 22:00:00 13,0 7,7 - - 0 0 N 1027,9 45 0 0,0
11.07.2020 21:00:00 16,6 7,6 - - 2 1 NE 1027,3 45 36 0,0
11.07.2020 20:00:00 18,9 7,2 - - 4 2 ENE 1027,0 45 54 0,0
11.07.2020 19:00:00 18,6 6,8 - - 5 3 NNE 1026,8 30 36 0,0
11.07.2020 18:00:00 20,0 6,2 - - 8 4 N 1026,7 45 48 0,0
11.07.2020 17:00:00 20,8 7,4 - - 9 5 N 1026,7 40 30 0,0
11.07.2020 16:00:00 20,7 5,5 - - 11 6 NNE 1026,5 35 42 0,0
11.07.2020 15:00:00 20,3 4,7 - - 11 6 NNW 1026,8 45 36 0,0
11.07.2020 14:00:00 18,8 5,9 - - 15 8 NW 1026,8 50 36 0,0
11.07.2020 13:00:00 18,8 5,5 - - 11 6 NNW 1026,8 35 42 0,0
11.07.2020 12:00:00 18,7 7,4 - - 11 6 NNW 1026,7 40 54 0,0
11.07.2020 11:00:00 18,1 7,7 - - 11 6 NW 1026,6 40 60 0,0
11.07.2020 10:00:00 16,5 7,6 17,7 16,4 9 5 NNW 1026,3 40 60 0,0
11.07.2020 09:00:00 15,1 8,3 - - 11 6 N 1026,1 50 60 0,0
11.07.2020 08:00:00 13,5 8,7 - - 11 6 N 1025,7 30 36 0,0
11.07.2020 07:00:00 11,2 8,6 - - 5 3 NNW 1025,3 40 0 0,0
11.07.2020 06:00:00 9,7 7,0 - - 4 2 NW 1025,0 45 0 0,0
11.07.2020 05:00:00 9,6 6,9 - - 8 4 NNW 1024,4 50 0 0,0
11.07.2020 04:00:00 10,2 7,0 - - 8 4 NNW 1024,2 50 0 0,0
11.07.2020 03:00:00 10,7 7,0 - - 8 4 NNW 1023,8 45 0 0,0
11.07.2020 02:00:00 10,4 6,5 - - 5 3 NW 1023,7 45 0 0,0
11.07.2020 01:00:00 11,3 6,6 - - 4 2 NNW 1023,2 45 - 0,0
11.07.2020 00:00:00 12,1 6,3 - - 5 3 NW 1022,7 45 0 0,0
10.07.2020 23:00:00 13,6 6,3 - - 8 4 NW 1022,2 50 0 0,0
10.07.2020 22:00:00 13,9 6,2 - - 5 3 NNW 1021,5 45 0 0,0
10.07.2020 21:00:00 15,5 6,2 - - 8 4 NW 1020,8 50 36 0,0
10.07.2020 20:00:00 17,5 5,9 - - 9 5 NNW 1020,5 50 36 0,0
10.07.2020 19:00:00 17,2 6,0 - - 15 8 N 1020,1 45 12 0,0
10.07.2020 18:00:00 18,0 5,5 - - 9 5 NW 1019,6 50 12 0,0
10.07.2020 17:00:00 18,1 6,3 - - 13 7 NNW 1019,3 45 24 0,0
10.07.2020 16:00:00 17,9 5,5 - - 16 9 NNW 1019,1 45 36 0,0
10.07.2020 15:00:00 19,1 5,2 - - 15 8 NNW 1018,7 30 36 0,0
10.07.2020 14:00:00 19,0 6,0 - - 13 7 NNW 1018,3 40 48 0,0
10.07.2020 13:00:00 17,6 6,6 - - 13 7 NW 1018,1 30 30 0,0
10.07.2020 12:00:00 17,9 8,2 - - 15 8 NNW 1017,5 30 42 -
10.07.2020 11:00:00 17,5 9,0 - - 15 8 N 1016,9 40 54 -
10.07.2020 10:00:00 16,6 10,6 17,7 16,4 16 9 N 1016,3 35 48 0,0
10.07.2020 09:00:00 14,4 11,4 - - 13 7 NNW 1015,8 45 0 0,0
10.07.2020 08:00:00 13,7 11,7 - - 13 7 N 1015,2 50 0 0,0
10.07.2020 07:00:00 13,0 12,3 - - 11 6 NNW 1014,3 5 0 0,0
10.07.2020 06:00:00 13,4 12,4 - - 9 5 NNW 1013,6 11 0 0,0
10.07.2020 05:00:00 13,9 12,3 - - 11 6 NNW 1012,8 50 0 0,0
10.07.2020 04:00:00 14,0 12,7 - - 11 6 NNW 1012,3 50 0 0,0
10.07.2020 03:00:00 14,8 13,4 - - 15 8 NNW 1011,9 45 0 0,0
10.07.2020 02:00:00 15,6 14,2 - - 15 8 NNW 1011,8 50 0 0,0
10.07.2020 01:00:00 16,3 15,5 - - 9 5 W 1011,3 15 - 0,0
10.07.2020 00:00:00 16,2 15,5 - - 9 5 W 1010,9 13 0 0,0
09.07.2020 23:00:00 16,0 15,2 - - 9 5 W 1011,0 12 0 0,0
09.07.2020 22:00:00 16,0 14,9 - - 11 6 WSW 1011,0 15 0 0,0
09.07.2020 21:00:00 16,3 15,0 - - 11 6 WSW 1011,0 13 0 0,0
09.07.2020 20:00:00 16,4 14,9 - - 13 7 W 1011,1 17 0 0,0
09.07.2020 19:00:00 16,7 15,0 - - 13 7 W 1011,4 15 0 0,0
09.07.2020 18:00:00 16,8 15,2 - - 13 7 W 1011,9 21 0 0,0
09.07.2020 17:00:00 17,2 15,4 - - 16 9 WSW 1012,3 27 0 0,0
09.07.2020 16:00:00 17,4 15,8 - - 13 7 W 1012,6 28 0 0,0
09.07.2020 15:00:00 16,3 15,7 - - 16 9 WSW 1013,0 13 0 0,0
09.07.2020 14:00:00 16,1 15,5 - - 16 9 WSW 1013,3 2,8 0 0,0
09.07.2020 13:00:00 16,0 15,6 - - 15 8 WSW 1013,5 9 0 0,0
09.07.2020 12:00:00 16,0 15,6 - - 16 9 WSW 1013,3 3,1 0 0,0
09.07.2020 11:00:00 15,8 15,3 - - 13 7 WSW 1013,3 3,4 0 0,0
09.07.2020 10:00:00 15,9 14,9 17,9 16,4 15 8 WSW 1013,5 11 0 0,0
09.07.2020 09:00:00 15,9 14,9 - - 13 7 WSW 1013,5 14 0 0,0
09.07.2020 08:00:00 15,5 14,7 - - 13 7 WSW 1013,6 4,2 0 0,2
09.07.2020 07:00:00 15,4 14,5 - - 13 7 WSW 1013,5 14 0 0,0
09.07.2020 06:00:00 15,1 14,4 - - 13 7 WSW 1013,9 12 0 0,0
09.07.2020 05:00:00 15,2 14,9 - - 13 7 WSW 1014,0 6 0 0,2
09.07.2020 04:00:00 15,5 15,1 - - 13 7 WSW 1014,1 12 0 0,0
09.07.2020 03:00:00 15,7 15,5 - - 9 5 WSW 1014,4 7 0 0,2
09.07.2020 02:00:00 15,6 15,5 - - 9 5 WSW 1014,7 6 0 0,0
09.07.2020 01:00:00 15,8 15,5 - - 11 6 WSW 1014,9 6 - 0,0
09.07.2020 00:00:00 15,6 15,4 - - 15 8 WSW 1015,2 5 0 0,0
08.07.2020 23:00:00 15,7 15,4 - - 13 7 W 1015,2 6 0 0,0
08.07.2020 22:00:00 16,0 15,6 - - 9 5 WSW 1015,2 5 0 0,0
08.07.2020 21:00:00 16,1 15,8 - - 11 6 WSW 1015,2 5 0 0,0
08.07.2020 20:00:00 16,8 15,9 - - 11 6 WSW 1015,5 5 0 0,0
08.07.2020 19:00:00 17,5 15,9 - - 9 5 WSW 1015,4 9 0 0,0
08.07.2020 18:00:00 18,3 16,0 - - 13 7 W 1015,3 12 0 0,0
08.07.2020 17:00:00 19,3 16,6 - - 11 6 W 1015,4 15 0 0,0
08.07.2020 16:00:00 18,9 16,5 - - 13 7 W 1015,5 15 0 0,0
08.07.2020 15:00:00 18,8 16,6 - - 11 6 W 1015,6 13 0 0,0
08.07.2020 14:00:00 17,5 16,0 - - 13 7 W 1015,7 25 0 0,0
08.07.2020 13:00:00 17,3 16,1 - - 11 6 W 1015,4 13 0 0,0
08.07.2020 12:00:00 16,7 15,9 - - 11 6 W 1015,6 10 0 0,0
08.07.2020 11:00:00 16,9 16,4 - - 9 5 W 1015,3 21 0 0,0
08.07.2020 10:00:00 16,4 15,8 17,7 16,4 9 5 W 1015,2 18 0 0,2
08.07.2020 09:00:00 15,8 15,5 - - 13 7 W 1015,0 14 0 0,4
08.07.2020 08:00:00 15,3 15,2 - - 11 6 W 1014,9 9 0 0,8
08.07.2020 07:00:00 15,1 14,9 - - 11 6 W 1014,6 5 0 2,2
08.07.2020 06:00:00 15,0 14,6 - - 9 5 W 1014,6 4,6 0 0,4
08.07.2020 05:00:00 15,0 14,5 - - 11 6 W 1014,8 8 0 0,0
08.07.2020 04:00:00 14,8 14,4 - - 9 5 WSW 1015,0 7 0 0,2
08.07.2020 03:00:00 14,7 14,3 - - 9 5 WSW 1015,6 8 0 0,2
08.07.2020 02:00:00 14,7 14,1 - - 11 6 W 1016,3 6 0 0,4
08.07.2020 01:00:00 14,8 13,6 - - 11 6 WSW 1016,7 8 - 0,0
08.07.2020 00:00:00 15,0 13,0 - - 11 6 W 1017,2 11 0 0,0
07.07.2020 23:00:00 15,0 12,6 - - 9 5 W 1017,6 12 0 0,0
07.07.2020 22:00:00 14,9 12,2 - - 11 6 W 1017,9 13 0 0,0
07.07.2020 21:00:00 15,0 11,8 - - 13 7 W 1018,2 15 0 0,0
07.07.2020 20:00:00 15,1 10,9 - - 16 9 W 1018,4 17 0 0,0
07.07.2020 19:00:00 15,9 10,2 - - 15 8 W 1018,6 21 0 0,0
07.07.2020 18:00:00 16,7 9,0 - - 15 8 WSW 1018,6 30 6 0,0
07.07.2020 17:00:00 17,9 8,6 - - 16 9 W 1019,3 23 42 0,0
07.07.2020 16:00:00 17,4 9,1 - - 16 9 WSW 1019,9 27 6 0,0
07.07.2020 15:00:00 19,0 10,3 - - 16 9 WSW 1020,2 16 30 0,0
07.07.2020 14:00:00 18,3 8,7 - - 13 7 W 1020,6 35 6 0,0
07.07.2020 13:00:00 19,3 7,5 - - 13 7 WSW 1020,9 30 30 0,0
07.07.2020 12:00:00 19,6 7,3 - - 13 7 SW 1021,1 30 60 0,0
07.07.2020 11:00:00 18,5 8,0 - - 11 6 SW 1021,4 26 48 0,0
07.07.2020 10:00:00 17,6 6,8 17,2 16,4 8 4 W 1021,9 27 60 0,0
07.07.2020 09:00:00 16,2 7,6 - - 8 4 WNW 1022,0 45 54 0,0
07.07.2020 08:00:00 14,0 9,0 - - 5 3 N 1022,2 29 18 0,0
07.07.2020 07:00:00 12,2 8,8 - - 8 4 NW 1022,1 27 0 0,0
07.07.2020 06:00:00 9,7 8,5 - - 2 1 NW 1022,2 40 0 0,0
07.07.2020 05:00:00 8,7 6,9 - - 0 0 N 1022,0 30 0 0,0
07.07.2020 04:00:00 9,4 7,7 - - 2 1 N 1022,5 40 0 0,0
07.07.2020 03:00:00 9,3 7,9 - - 0 0 N 1022,7 35 0 0,0
07.07.2020 02:00:00 10,2 8,0 - - 2 1 S 1022,9 40 0 0,0
07.07.2020 01:00:00 12,3 8,8 - - 5 3 N 1022,9 40 - 0,0
07.07.2020 00:00:00 13,2 9,9 - - 4 2 WNW 1023,0 35 0 0,0
06.07.2020 23:00:00 13,2 8,7 - - 4 2 W 1023,1 40 0 0,0
06.07.2020 22:00:00 14,8 8,5 - - 5 3 WNW 1022,9 50 0 0,0
06.07.2020 21:00:00 16,3 8,4 - - 5 3 WNW 1022,3 40 42 0,0
06.07.2020 20:00:00 18,1 9,1 - - 5 3 WNW 1022,1 45 24 0,0
06.07.2020 19:00:00 18,7 8,2 - - 8 4 WNW 1021,8 30 6 0,0
06.07.2020 18:00:00 18,4 7,9 - - 9 5 NW 1021,6 40 6 0,0
06.07.2020 17:00:00 19,4 8,0 - - 13 7 NNW 1021,5 50 18 0,0
06.07.2020 16:00:00 18,2 8,1 - - 11 6 NW 1021,3 30 6 0,0
06.07.2020 15:00:00 17,8 7,4 - - 11 6 WNW 1021,1 50 6 0,0
06.07.2020 14:00:00 18,6 7,6 - - 11 6 NW 1020,6 22 12 0,0
06.07.2020 13:00:00 17,9 6,9 - - 16 9 NNW 1020,2 35 12 0,0
06.07.2020 12:00:00 18,5 8,6 - - 11 6 WNW 1019,6 30 12 0,0
06.07.2020 11:00:00 17,0 6,5 - - 15 8 WNW 1019,1 45 24 0,0
06.07.2020 10:00:00 15,4 8,4 17,5 16,4 13 7 W 1018,8 28 42 0,0
06.07.2020 09:00:00 14,8 8,9 - - 15 8 WNW 1018,6 22 60 0,0
06.07.2020 08:00:00 13,8 9,9 - - 13 7 W 1017,9 15 30 0,0
06.07.2020 07:00:00 12,2 9,5 - - 9 5 W 1017,6 12 0 0,0
06.07.2020 06:00:00 10,7 8,9 - - 8 4 W 1016,9 11 0 0,0
06.07.2020 05:00:00 10,7 8,5 - - 8 4 W 1016,5 12 0 0,0
06.07.2020 04:00:00 10,9 8,2 - - 9 5 W 1016,1 13 0 0,0

tt = Température de l'air
td = dewpoint
tt -20cm = Température de l'air -20cm
tt -100cm = Température de l'air -100cm
ff = Vitesse du vent
dd = Direction du vent
ppp = reduced air pressure
vv = visibility
sd = Ensoleillement
rr = Quantités de précipitations

stations d'obs. à proximité